Content
SEND FEEDBACK

Daily
Averages
Monthly
Summary
Indonesia

BAMBOEAPOES, INDONESIA


Home > Asia > Indonesia
Elevation: 98 feet     Latitude: 06 18S     Longitude: 106 54E

WEATHER
 
SELECT A DAY
Number of Records: 236,146;   Date Range: 9/17/97 - 12/25/14
 
SHARE

PRINT THIS DATA

[ ← Previous Day ]
WEATHER ALMANAC - JANUARY 23, 2013
[ Next Day → ]
[ °C ]   °F
Weather ElementAverageHighLow
Temperature76.9 °F86 °F (1:00 pm) (3:00 pm)
Dewpoint73.5 °F77 °F (8:30 am) (7:00 pm)
Humidity89.1 %100 % (1:30 am)69 % (1:00 pm)
Barometer28.76 in29.90 in (1:00 am) (7:00 pm)
Wind Speed8.1 mph23 mph (5:00 pm)
Weather ElementAverage
Visibility4.3 mi
Wind DirectionWSW (260.9 °)

Weather ElementTotal
Precipitation---
Heating Degree Days22 (Base 65)
Averaged from 55 records on January 23, 2013
WEATHER CONDITIONS BREAKOUT
WIND DIRECTION BREAKOUT
WEATHER BY HOUR - JANUARY 23, 2013
[ °C ]   °F
Local TimeTemperatureDewpointHumidityBarometerVisibilityWind DirectionWind SpeedGust SpeedPrecipitationEventsConditions
12:30 AM75.2 °F73.4 °F94 %29.89 in2.5 miWSW (250°)9.2 mphDrizzle
1:00 AM76.0 °F74.0 °F94 %29.90 in3.0 miWest (280°)5.8 mphRainLight Rain
1:00 AM75.2 °F73.4 °F94 %29.89 in2.8 miWest (280°)5.8 mphRainLight Rain
1:30 AM75.2 °F75.2 °F100 %29.86 in3.1 miNNW (330°)4.6 mphRainLight Rain
2:00 AM75.2 °F75.2 °F100 %29.86 in3.1 miWest (260°)3.5 mphLight Drizzle
2:30 AM75.2 °F75.2 °F100 %29.86 in3.1 miWSW (250°)3.5 mphLight Drizzle
3:00 AM75.2 °F75.2 °F100 %29.83 in3.7 miSW (230°)3.5 mphPartly Cloudy
3:30 AM75.2 °F75.2 °F100 %29.83 in1.9 miWSW (240°)5.8 mphScattered Clouds
4:00 AM76.0 °F74.0 °F93 %29.84 in3.0 miWSW (240°)4.6 mphMist
4:00 AM75.2 °F75.2 °F100 %29.83 inWSW (240°)4.6 mphScattered Clouds
4:30 AM75.2 °F75.2 °F100 %29.83 in2.5 miWSW (240°)3.5 mphScattered Clouds
5:00 AM75.2 °F75.2 °F100 %29.83 in1.9 miSW (220°)3.5 mphPartly Cloudy
5:30 AM75.2 °F75.2 °F100 %29.83 in1.9 miWest (260°)3.5 mphMostly Cloudy
6:00 AM75.2 °F75.2 °F100 %29.83 in1.7 miSouth (180°)4.6 mphPartly Cloudy
6:30 AM77.0 °F75.2 °F94 %29.86 inSSW (210°)4.6 mphPartly Cloudy
7:00 AM77.0 °F75.0 °F93 %29.86 in3.0 miWSW (240°)3.5 mphHaze
7:00 AM77.0 °F75.2 °F94 %29.86 in2.5 miWSW (240°)3.5 mphPartly Cloudy
7:30 AM78.8 °F75.2 °F89 %29.86 inSSW (200°)4.6 mphHaze
8:00 AM80.6 °F75.2 °F84 %29.86 in3.1 miWest (270°)8.1 mphHaze
8:30 AM82.4 °F77.0 °F84 %29.86 in5.0 miWNW (290°)6.9 mphPartly Cloudy
9:00 AM82.4 °F75.2 °F79 %29.89 in6.2 miWNW (300°)8.1 mphPartly Cloudy
9:30 AM82.4 °F75.2 °F79 %29.89 in5.6 miNW (320°)9.2 mphMostly Cloudy
10:00 AM83.0 °F75.0 °F72 %29.88 in6.0 miWNW (290°)10.4 mphPartly Cloudy
10:00 AM84.2 °F75.2 °F74 %29.89 in6.2 miNNW (330°)10.4 mphScattered Clouds
10:30 AM84.2 °F75.2 °F74 %6.2 miNNW (330°)11.5 mphMostly Cloudy
11:00 AM84.2 °F75.2 °F74 %29.86 in6.2 miNNW (330°)9.2 mphMostly Cloudy
11:30 AM84.2 °F75.2 °F74 %29.83 in6.2 miNNW (330°)11.5 mphPartly Cloudy
12:00 PM84.2 °F75.2 °F74 %29.83 in6.2 miNW (320°)10.4 mphPartly Cloudy
12:30 PM84.2 °F77.0 °F79 %29.83 in6.2 miNNW (330°)11.5 mphScattered Clouds
1:00 PM85.0 °F76.0 °F69 %29.81 in6.0 miNW (310°)11.5 mphPartly Cloudy
1:00 PM86.0 °F77.0 °F74 %29.80 in6.2 miNNW (330°)9.2 mphPartly Cloudy
1:30 PM86.0 °F77.0 °F74 %29.80 in5.6 miNNW (330°)10.4 mphScattered Clouds
2:00 PM84.2 °F75.2 °F74 %5.6 miNNW (330°)6.9 mphThunderstormThunderstorm
2:30 PM82.4 °F75.2 °F79 %29.80 in5.6 miSouth (180°)5.8 mphThunderstormThunderstorm
3:00 PM0.0 °F0.0 °F29.80 in0.2 miWSW (250°)21.9 mphRain-ThunderstormHeavy Thunderstorms and Rain
3:30 PM77.0 °F75.2 °F94 %29.80 inWest (280°)5.8 mphRain-ThunderstormThunderstorms and Rain
4:00 PM76.0 °F75.0 °F96 %29.78 in4.0 miSE (140°)4.6 mphRainLight Rain
4:00 PM77.0 °F75.2 °F94 %29.77 in3.7 miNE (40°)3.5 mphRainLight Rain
4:30 PM77.0 °F75.2 °F94 %29.80 in4.3 miSouth (190°)3.5 mphRainLight Rain
5:00 PM77.0 °F75.2 °F94 %29.80 in5.0 miWSW (250°)23.0 mphRainLight Rain
5:30 PM77.0 °F73.4 °F89 %29.83 in5.0 miWSW (250°)20.7 mphRainLight Rain
6:00 PM75.2 °F73.4 °F94 %29.83 in4.3 miWest (260°)13.8 mphRainLight Rain
6:30 PM75.2 °F73.4 °F94 %29.83 in5.0 miWSW (250°)17.3 mphRainLight Rain
7:00 PM76.0 °F74.0 °F93 %29.85 in6.0 miWSW (250°)10.4 mphRainLight Rain
7:00 PM75.2 °F73.4 °F94 %29.83 in5.6 miWest (260°)10.4 mphRainLight Rain
7:30 PM75.2 °F73.4 °F94 %29.86 in5.6 miWSW (250°)8.1 mphMostly Cloudy
8:00 PM77.0 °F73.4 °F89 %29.86 in3.7 miWSW (240°)9.2 mphMostly Cloudy
8:30 PM77.0 °F73.4 °F89 %29.86 in4.3 miWSW (250°)8.1 mphScattered Clouds
9:00 PM77.0 °F73.4 °F89 %29.89 in4.3 miWest (270°)10.4 mphRainLight Rain Showers
9:30 PM77.0 °F73.4 °F89 %29.89 in4.3 miWNW (290°)6.9 mphRainLight Rain Showers
10:00 PM76.0 °F74.0 °F93 %29.90 in6.0 miWSW (250°)9.2 mphRainLight Rain
10:00 PM77.0 °F73.4 °F89 %29.89 in4.3 miWest (260°)8.1 mphScattered Clouds
10:30 PM77.0 °F75.2 °F94 %29.89 in4.3 miWNW (290°)6.9 mphRainLight Rain Showers
11:00 PM77.0 °F75.2 °F94 %29.89 in4.3 miWest (270°)5.8 mphScattered Clouds
11:30 PM75.2 °F73.4 °F94 %29.89 in4.3 miWSW (250°)6.9 mphRainLight Rain Showers
Hourly data recorded from WIII, located miles away from Bamboeapoes, Indonesia







STORIES FROM OUR PARTNERS